This is the latest recevied weather packets stored in our database for station/object NE8U. If no packets are shown the sender has not sent any weather packets the latest 10 day(s).
| Time | Temp. | Humidity | Pressure | Rain* | Wind** | Luminosity | Snow |
|---|---|---|---|---|---|---|---|
| 1778088903 | 22.78° C | 32% | 1017.9 hPa | 0 mm | - | 771 W/m² | - |
| 1778088599 | 21.67° C | 33% | 1017.9 hPa | 0 mm | - | 779 W/m² | - |
| 1778088297 | 22.22° C | 34% | 1017.7 hPa | 0 mm | - | 794 W/m² | - |
| 1778087992 | 22.22° C | 35% | 1017.8 hPa | 0 mm | - | 783 W/m² | - |
| 1778087690 | 21.67° C | 34% | 1017.8 hPa | 0 mm | - | 787 W/m² | - |
| 1778087387 | 22.22° C | 32% | 1017.7 hPa | 0 mm | - | 796 W/m² | - |
| 1778087083 | 22.78° C | 32% | 1017.9 hPa | 0 mm | - | 797 W/m² | - |
| 1778086777 | 21.67° C | 33% | 1017.8 hPa | 0 mm | - | 790 W/m² | - |
| 1778086475 | 22.22° C | 32% | 1017.8 hPa | 0 mm | - | 803 W/m² | - |
| 1778086170 | 21.67° C | 34% | 1017.9 hPa | 0 mm | - | 780 W/m² | - |
| 1778085867 | 22.22° C | 33% | 1017.8 hPa | 0 mm | - | 818 W/m² | - |
| 1778085560 | 21.67° C | 34% | 1017.8 hPa | 0 mm | - | 855 W/m² | - |
| 1778085254 | 21.67° C | 34% | 1017.7 hPa | 0 mm | - | 845 W/m² | - |
| 1778084949 | 21.67° C | 34% | 1017.6 hPa | 0 mm | - | 855 W/m² | - |
| 1778084647 | 21.67° C | 33% | 1017.7 hPa | 0 mm | - | 848 W/m² | - |
| 1778084345 | 21.11° C | 34% | 1017.8 hPa | 0 mm | - | 821 W/m² | - |
| 1778084043 | 21.67° C | 33% | 1017.7 hPa | 0 mm | - | 789 W/m² | - |
| 1778083740 | 21.11° C | 38% | 1017.6 hPa | 0 mm | - | 749 W/m² | - |
| 1778083436 | 21.67° C | 39% | 1017.7 hPa | 0 mm | - | 754 W/m² | - |
| 1778083134 | 21.67° C | 39% | 1017.7 hPa | 0 mm | - | 706 W/m² | - |
| 1778082831 | 20.56° C | 41% | 1017.7 hPa | 0 mm | - | 679 W/m² | - |
| 1778081708 | 20.56° C | 45% | 1017.7 hPa | 0 mm | - | 609 W/m² | - |
| 1778081406 | 20° C | 45% | 1017.6 hPa | 0 mm | - | 555 W/m² | - |
| 1778081103 | 20° C | 46% | 1017.8 hPa | 0 mm | - | 558 W/m² | - |
| 1778080801 | 20° C | 45% | 1017.6 hPa | 0 mm | - | 524 W/m² | - |
* Rain latest hour (hover to see other rain measurements)
** Current wind speed in m/s (hover to see current wind gust speed)